Theta_e
343 346 348 349 350 351 352 352 350 347 344 350 350 350 351 352 352 352 353 349 352 352 350 349 349 346 348 347 350 347 341 340 341 337 332 333 335 337 336 335 333 333 335
343 344 347 349 350 350 352 351 343 342 340 352 351 351 351 349 350 350 352 352 347 346 348 347 350 350 350 353 351 343 337 333 336 336 334 332 333 337 334 337 337 339 338
343 344 345 347 349 350 352 351 342 342 340 346 353 353 353 351 352 351 350 349 343 339 342 343 343 344 343 350 345 339 332 333 333 337 337 336 334 335 335 333 336 336 336
343 346 347 348 349 350 352 352 345 346 345 343 352 354 351 350 352 353 351 352 351 345 342 340 343 340 345 345 344 338 322 328 333 337 337 337 337 337 336 333 332 332 331
342 344 346 348 349 350 351 353 348 345 347 346 348 353 351 351 354 354 354 346 354 342 342 344 343 343 343 342 341 334 322 331 336 336 336 336 335 334 334 331 329 328 327
344 343 345 347 348 349 350 352 352 344 345 346 345 346 351 351 353 353 353 353 352 352 344 345 345 343 345 343 341 333 324 322 328 337 336 333 331 330 329 329 327 326 324
347 345 344 345 347 348 349 350 353 346 344 345 345 345 343 344 347 351 355 354 353 347 341 337 340 347 339 343 339 329 323 332 333 333 332 330 328 328 327 326 324 324 324
346 347 346 345 345 347 349 351 352 345 344 344 344 344 344 344 350 354 354 355 355 343 336 341 327 331 342 343 335 332 330 334 334 328 327 328 325 323 323 322 323 325 325
345 346 347 348 347 347 348 350 351 345 341 344 343 343 344 344 353 353 354 356 347 343 334 333 330 332 337 341 331 328 337 335 328 329 328 324 323 322 323 324 325 326 326
342 344 346 347 348 349 348 349 351 344 341 342 342 343 343 344 344 347 350 352 348 346 342 331 332 334 336 338 330 336 337 323 324 324 324 319 323 322 323 323 325 327 327
341 343 344 346 348 348 350 350 351 351 342 342 343 345 343 344 344 345 349 348 349 349 344 335 334 335 335 338 338 336 328 324 322 320 323 320 320 322 322 326 327 327 326
340 342 343 344 347 347 348 350 352 352 343 344 345 344 347 351 346 344 345 348 350 349 347 336 335 337 338 338 338 334 330 324 325 327 322 321 322 322 323 326 328 326 325
344 343 343 344 346 347 348 349 352 353 355 355 350 347 350 350 346 345 345 346 349 348 345 338 339 337 336 338 336 327 323 328 327 323 323 323 323 322 324 327 326 325 325
347 345 345 346 348 348 349 350 351 353 355 354 348 349 350 352 351 350 346 347 349 351 347 343 341 337 338 337 330 326 325 328 326 323 322 324 322 322 323 323 323 324 324
348 348 350 350 350 350 350 349 345 348 350 348 346 349 355 358 357 356 353 349 351 348 343 342 341 339 337 335 331 328 330 325 323 324 326 322 318 317 321 321 321 322 321
346 349 351 353 352 346 342 343 343 343 344 345 348 356 359 357 359 358 353 352 349 346 344 343 339 338 335 332 325 320 325 328 328 328 322 318 320 322 321 320 320 322 322
343 348 351 352 349 349 344 342 350 346 346 348 359 359 353 354 355 354 354 353 349 346 344 340 336 335 335 330 320 322 324 328 329 326 319 319 319 321 322 319 320 323 322
340 347 350 351 346 348 344 346 351 350 353 358 355 349 351 353 354 353 353 348 344 342 339 334 332 335 335 321 321 323 324 326 327 320 318 319 321 321 319 319 320 322 322
341 347 349 349 342 349 348 346 345 350 357 345 342 344 347 351 354 351 348 343 340 338 333 333 335 335 333 320 323 325 326 328 323 320 318 319 320 318 318 318 318 322 322
347 350 349 351 352 352 347 344 356 356 348 335 333 334 338 344 349 350 344 341 339 335 334 336 336 332 332 323 325 325 327 324 321 318 318 318 317 317 317 317 317 321 321
350 350 351 353 354 351 347 347 347 332 325 324 322 325 327 333 347 348 343 341 337 338 336 336 334 332 332 324 324 324 326 321 317 317 316 316 311 314 315 316 316 319 320
351 353 353 352 350 342 336 337 326 326 325 329 335 337 344 347 349 345 342 339 336 337 336 335 334 333 326 328 328 326 324 319 314 315 314 310 306 308 312 314 314 316 318
347 347 347 347 346 341 331 323 323 323 324 328 336 345 347 348 346 344 341 339 336 336 335 335 333 332 331 325 326 326 322 316 310 308 306 306 305 304 309 309 312 313 313
341 339 336 335 334 333 332 332 335 337 336 338 344 346 348 346 345 343 341 340 338 335 335 334 333 333 330 323 320 321 318 314 311 310 310 305 305 304 304 309 310 309 310
327 324 324 322 319 316 315 314 314 317 334 345 342 344 344 344 344 341 340 337 337 336 335 333 332 330 328 322 320 317 313 309 306 308 308 306 305 305 304 306 308 308 309
328 327 326 327 327 324 317 315 314 316 322 334 343 341 340 341 339 338 337 335 334 332 330 329 327 327 326 321 317 312 309 307 305 307 306 304 304 303 303 304 305 305 304
Wind_Speed
21 21 21 20 20 19 20 20 20 20 20 18 16 15 14 12 12 11 13 13 11 9 9 6 8 10 10 12 12 11 13 13 12 15 16 13 10 5 8 13 9 11 11
23 24 24 23 23 22 21 21 22 21 21 17 16 15 14 13 13 13 14 14 14 11 10 10 10 11 10 13 12 17 13 11 11 12 14 12 10 7 19 9 10 8 13
26 26 26 26 25 25 24 24 23 22 23 21 17 16 16 15 14 14 15 14 15 13 11 12 14 15 16 11 17 14 15 12 11 10 7 9 10 20 5 14 11 17 14
28 29 30 30 29 27 25 25 25 25 23 23 21 19 16 16 13 12 11 11 12 12 12 14 15 17 18 19 13 15 18 15 10 9 8 10 13 16 17 14 19 16 19
31 32 33 32 30 28 27 26 27 27 27 26 24 22 20 17 14 12 12 13 12 13 15 16 17 18 19 19 20 19 19 10 11 9 10 11 12 12 17 31 28 24 20
31 30 30 30 31 31 30 28 29 31 29 30 28 28 24 21 17 15 13 10 10 11 15 17 19 19 20 20 21 20 17 15 13 9 10 11 14 16 18 23 26 29 27
31 32 33 33 32 33 32 31 31 34 33 33 32 30 28 26 24 20 15 14 14 16 16 18 22 20 23 23 21 19 15 12 10 12 10 10 13 16 19 23 26 26 28
34 36 38 37 36 35 34 33 33 36 36 35 34 31 30 29 26 23 19 18 17 20 20 25 25 27 26 23 21 13 14 11 9 12 11 11 14 17 19 22 25 28 28
31 38 37 37 37 36 37 37 36 37 35 37 34 34 33 33 26 25 22 21 24 23 24 27 29 30 27 23 20 15 10 10 11 9 9 14 16 17 20 21 23 26 31
24 31 37 39 37 35 35 34 35 39 36 36 33 36 35 34 32 32 30 26 25 24 28 27 28 26 29 25 19 13 12 13 9 11 14 19 17 20 20 22 23 24 30
19 26 32 34 36 34 32 34 33 34 36 38 37 36 36 35 35 34 31 30 26 26 30 29 32 30 26 20 13 13 14 12 12 14 15 20 23 21 22 22 22 27 30
13 20 27 29 31 35 33 33 32 33 36 34 34 36 35 32 35 35 35 28 29 28 29 28 32 25 20 13 13 13 10 12 11 13 18 22 21 24 22 22 25 29 33
12 17 23 27 28 28 30 31 29 28 26 27 28 29 31 34 36 34 34 29 28 28 30 29 30 23 16 12 12 14 13 11 12 16 19 22 22 23 23 24 25 28 33
14 18 22 24 24 23 24 24 25 23 23 23 24 24 25 26 27 27 32 31 28 30 31 28 27 18 12 12 12 12 12 12 13 18 21 20 21 22 23 24 28 31 35
17 20 21 21 22 23 23 23 22 21 20 20 18 18 18 18 21 22 23 24 25 29 25 25 20 12 11 11 11 10 11 15 16 18 19 20 25 22 24 29 32 37 36
19 19 21 21 23 25 25 23 21 19 17 16 15 14 15 18 18 18 17 21 26 21 23 20 12 11 10 15 12 13 13 13 15 16 22 25 21 19 25 28 31 31 37
20 20 23 23 23 23 23 21 18 18 17 16 14 13 14 14 13 13 17 22 16 16 19 15 12 12 11 15 12 12 13 13 14 17 24 21 18 20 22 28 32 27 32
21 17 19 19 22 20 20 20 19 18 16 14 11 8 6 7 9 12 14 14 16 16 15 14 13 12 12 12 12 12 12 13 15 20 19 17 17 18 25 28 30 26 30
17 18 19 19 21 21 22 23 21 19 16 12 7 4 4 5 6 8 11 13 15 15 14 13 13 14 12 11 11 11 11 12 17 17 18 16 15 19 22 25 27 28 30
15 16 19 22 23 24 25 23 20 18 15 10 5 2 3 5 8 12 13 13 13 13 13 12 12 12 11 9 9 11 9 12 14 15 14 17 20 19 20 22 23 26 28
12 18 19 22 24 25 24 22 19 16 10 4 4 7 9 10 15 20 16 12 14 13 13 12 11 10 10 7 10 12 10 10 14 14 14 12 18 16 17 19 19 22 24
18 20 23 24 24 23 21 20 17 13 12 9 9 11 14 15 21 19 16 14 14 13 12 11 10 9 10 10 11 12 12 15 16 13 12 14 16 15 15 15 15 17 19
22 22 25 24 22 20 18 17 14 11 8 6 10 14 16 17 20 16 15 13 14 12 12 12 11 10 7 9 11 10 11 13 15 12 14 14 14 12 10 13 13 15 17
24 23 23 23 21 18 14 13 9 8 7 9 7 7 11 19 18 15 14 13 12 14 13 12 9 9 9 6 4 3 7 11 10 11 10 12 13 13 11 12 13 15 16
24 22 20 17 15 11 9 7 5 5 5 5 8 11 14 12 10 14 14 12 15 15 10 9 7 8 8 9 7 3 4 5 9 7 7 8 9 11 12 12 13 14 16
21 21 20 18 16 13 11 9 7 5 6 9 9 3 8 14 14 15 11 13 12 13 14 11 8 10 13 9 5 3 6 8 8 7 7 8 10 11 12 13 14 15 16
Wind_Direction
203 202 201 203 204 207 208 209 211 214 213 214 214 216 224 235 238 243 242 246 258 272 285 286 297 309 318 310 328 333 332 330 325 338 331 334 330 320 343 310 301 295 298
203 203 204 204 206 206 207 209 211 213 213 213 214 218 228 234 239 240 244 246 252 265 269 277 285 294 305 315 323 330 337 332 322 333 335 334 333 330 320 320 323 310 311
205 203 204 207 207 208 209 211 215 215 217 212 220 227 228 236 242 244 249 251 249 253 262 281 290 291 305 306 315 323 332 329 335 329 341 342 331 326 307 320 315 314 313
211 208 207 208 209 211 212 215 219 222 223 224 218 223 225 232 238 238 237 233 237 244 260 272 284 292 299 302 308 318 326 325 326 333 322 317 313 325 317 307 312 311 309
210 211 210 212 211 211 213 216 221 224 225 230 225 226 230 232 233 233 230 238 235 249 258 271 281 290 300 300 307 312 319 323 317 317 316 315 317 310 302 308 313 310 310
208 211 214 213 214 214 215 216 220 225 227 231 232 231 228 226 224 231 232 234 239 247 261 285 289 293 299 303 310 308 313 314 307 310 315 312 311 310 306 301 302 305 309
211 210 210 211 213 213 214 215 219 225 226 228 232 232 233 236 235 229 236 227 230 249 261 266 271 297 301 301 301 301 304 303 300 304 309 310 308 305 302 298 299 300 303
214 212 210 210 212 213 213 214 217 227 227 227 230 233 234 234 234 233 225 231 229 249 255 257 267 281 294 297 295 296 293 291 299 300 308 312 312 309 304 299 301 301 302
216 216 214 213 212 212 214 215 216 226 225 230 232 234 235 233 230 226 233 230 240 245 249 257 280 284 283 291 285 292 280 283 294 287 309 318 314 313 306 304 300 300 303
221 217 215 214 214 214 214 216 219 226 228 231 231 237 238 238 238 238 237 237 247 244 244 248 281 296 279 286 281 271 273 289 285 309 305 319 316 315 314 306 302 303 303
227 217 212 213 213 214 213 214 217 222 229 231 231 233 239 237 238 239 237 246 244 245 244 250 281 286 274 277 260 260 268 278 293 306 311 318 321 319 315 310 308 307 308
236 214 207 206 208 210 212 214 215 218 230 233 232 233 237 236 237 240 241 242 245 244 246 250 278 281 273 255 251 257 256 278 292 302 311 319 320 320 318 312 307 309 314
227 203 199 200 203 204 208 212 216 219 222 225 232 233 234 236 244 240 240 243 243 244 244 257 271 278 265 247 245 271 273 274 287 305 314 319 319 318 317 312 312 314 311
218 202 197 197 197 198 200 205 209 214 215 225 233 234 235 238 240 238 242 240 239 237 234 251 262 262 247 238 255 268 266 275 289 308 317 314 315 313 312 318 318 318 314
225 205 201 195 193 193 195 199 204 208 211 219 228 233 231 227 232 234 237 239 227 231 235 239 252 238 228 239 250 254 264 281 296 309 314 314 312 326 320 323 328 324 321
235 213 202 197 195 191 193 194 194 201 205 210 215 213 214 224 222 232 233 230 230 232 233 239 223 218 227 241 252 255 275 280 292 304 316 319 324 309 318 326 330 328 335
242 216 206 198 195 192 187 186 185 186 184 187 189 197 215 224 228 235 235 227 231 212 219 223 216 219 219 241 245 254 273 280 292 307 316 317 314 320 316 330 334 335 339
256 231 204 193 192 186 178 175 171 171 172 169 178 193 204 222 228 229 225 199 198 207 214 217 212 212 223 237 245 258 278 289 295 312 314 313 315 314 326 333 336 336 347
239 216 196 184 179 173 171 168 165 164 161 159 155 167 191 210 208 214 189 192 200 205 207 203 203 208 219 233 246 267 286 285 299 310 320 313 314 321 327 334 338 349 354
202 188 179 167 165 166 164 160 152 149 143 144 167 177 208 208 190 175 179 191 208 205 190 195 208 213 213 232 258 284 286 287 302 321 316 315 314 322 328 333 344 353 1
174 157 154 150 154 153 155 148 144 145 153 176 230 226 217 213 199 182 176 199 206 195 183 195 205 210 205 252 273 284 289 294 309 315 317 307 309 322 326 330 346 354 5
142 141 138 133 136 138 139 136 140 138 148 168 190 209 204 183 190 182 165 190 189 190 185 193 204 214 233 264 274 283 292 304 320 323 314 309 323 323 321 325 337 346 5
127 127 123 118 117 123 130 133 135 146 148 178 200 199 188 181 188 176 180 175 186 193 199 209 211 215 220 256 271 278 294 313 323 318 321 329 337 337 340 326 339 355 2
118 117 114 109 108 117 121 128 142 169 204 210 185 189 174 189 181 171 183 175 185 198 207 211 214 223 210 205 238 278 316 326 332 326 325 346 358 356 357 358 360 5 11
113 114 111 106 101 99 99 108 131 161 179 193 187 173 185 189 193 172 171 183 188 201 208 209 212 208 224 205 198 218 300 323 328 360 343 351 3 5 7 7 6 9 11
106 103 100 98 93 88 87 89 101 124 157 181 184 163 228 190 191 201 205 204 206 204 207 211 205 220 216 208 198 284 334 354 4 14 8 6 15 10 8 8 9 11 14